(294648) = 2008 AS71

Discovered at Kitt Peak on 2008-01-13 by Spacewatch.

Orbit

Orbit type: Main Belt

Note: WebGL enabled browser required.

epoch2023-09-13.0
epoch JD2460200.5
perihelion date2021-04-24.37064
perihelion JD2459328.87064
argument of perihelion (°)307.06730
ascending node (°)302.62105
inclination (°)8.20275
eccentricity0.0295488
perihelion distance (AU)3.0823226
Tisserand w.r.t. Jupiter3.2
ΔV w.r.t. Earth (km/sec)11.1
semimajor axis (AU)3.1761747
mean anomaly (°)151.76762
mean daily motion (°/day)0.17411940
aphelion distance (AU)3.270
period (years)5.66
P-vector [x]-0.34025076
P-vector [y]-0.81110883
P-vector [z]-0.47574350
Q-vector [x]0.93262459
Q-vector [y]-0.35574042
Q-vector [z]-0.06049904
absolute magnitude15.7
phase slope0.15
uncertainty0
referenceMPEC 2024-A65
observations used319
oppositions14
arc length (days)8920
first opposition used1999
last opposition used2024
residual rms (arc-secs)0.71
perturbers coarse indicatorM-v
perturbers precise indicator003Ek
first observation date used1999-08-03.0
last observation date used2024-01-04.0
computer nameMPCLINUX
JD of orbit computation2456760.904522
perihelion JD uncertainty (days)1.1188E-03
argument of perihelion uncertainty (°)1.9540E-04
ascending node uncertainty (°)3.4344E-05
inclination uncertainty (°)6.7913E-06
eccentricity uncertainty 5.1100E-08
perihelion distance uncertainty (AU)1.7835E-07
Minimum Orbit Intersection Distances (in AU)
for orbit epoch: 2460200.5, reference: E2023-XU4
Mercury2.61672
Venus2.36142
Earth2.07464
Mars1.52508
Jupiter1.83494
Saturn5.81035
Uranus15.2915
Neptune26.6424

Observations

329 total observations over interval: 1999 08 03.29437 – 2024 01 04.364073
These data are available for download (format description).

Date (UT) J2000 RA J2000 Dec Magn Location Ref
1999 08 03.29437 20 32 18.49 -18 02 57.9 20.2 V 691 – Steward Observatory, Kitt Peak-Spacewatch MPS 367109
1999 08 03.31649 20 32 17.35 -18 02 59.0 20.2 V 691 – Steward Observatory, Kitt Peak-Spacewatch MPS 367109
1999 08 03.33856 20 32 16.19 -18 02 59.9 20.0 V 691 – Steward Observatory, Kitt Peak-Spacewatch MPS 367109
2000 11 30.236640 00 37 41.675 +15 16 12.97 21.16 V 645 – Apache Point-Sloan Digital Sky Survey MPS 367109
2000 11 30.240112 00 37 41.669 +15 16 12.33 21.79   645 – Apache Point-Sloan Digital Sky Survey MPS 367109
2007 12 14.38099 08 37 09.62 +20 25 49.5 21.0 V G96 – Mt. Lemmon Survey MPS 239596
2007 12 14.38703 08 37 09.48 +20 25 49.3 21.3 V G96 – Mt. Lemmon Survey MPS 239596
2007 12 14.39304 08 37 09.37 +20 25 49.1 21.5 V G96 – Mt. Lemmon Survey MPS 239596
2007 12 14.39911 08 37 09.26 +20 25 49.4 22.2 V G96 – Mt. Lemmon Survey MPS 239596
2007 12 31.30461 08 28 14.05 +20 29 00.0 20.4 V 691 – Steward Observatory, Kitt Peak-Spacewatch MPS 239596
2007 12 31.32227 08 28 13.33 +20 29 00.6 20.1 V 691 – Steward Observatory, Kitt Peak-Spacewatch MPS 239596
2007 12 31.32677 08 28 13.15 +20 29 00.3 20.0 V G96 – Mt. Lemmon Survey MPS 239596
2007 12 31.33523 08 28 12.75 +20 29 00.5 20.0 V G96 – Mt. Lemmon Survey MPS 239596
2007 12 31.33992 08 28 12.58 +20 29 01.0 20.1 V 691 – Steward Observatory, Kitt Peak-Spacewatch MPS 239596
2007 12 31.34388 08 28 12.39 +20 29 00.8 20.1 V G96 – Mt. Lemmon Survey MPS 239596
2007 12 31.35248 08 28 12.03 +20 29 01.1 20.1 V G96 – Mt. Lemmon Survey MPS 239596
2008 01 13.25416 08 17 58.47 +20 37 31.7   691 – Steward Observatory, Kitt Peak-Spacewatch MPS 234439
2008 01 13.26932 08 17 57.64 +20 37 32.5   691 – Steward Observatory, Kitt Peak-Spacewatch MPS 234439
2008 01 13.28795 08 17 56.66 +20 37 33.2   691 – Steward Observatory, Kitt Peak-Spacewatch MPS 234439
2008 01 15.22591 08 16 15.19 +20 38 54.6 19.9 V 691 – Steward Observatory, Kitt Peak-Spacewatch MPS 234439
2008 01 15.24427 08 16 14.24 +20 38 55.3 20.0 V 691 – Steward Observatory, Kitt Peak-Spacewatch MPS 234439
2008 01 15.26237 08 16 13.26 +20 38 55.9 20.1 V 691 – Steward Observatory, Kitt Peak-Spacewatch MPS 234439
2008 01 19.21880 08 12 42.34 +20 41 33.8 19.6 V 691 – Steward Observatory, Kitt Peak-Spacewatch MPS 236377
2008 01 19.23718 08 12 41.31 +20 41 34.3 19.6 V 691 – Steward Observatory, Kitt Peak-Spacewatch MPS 236377
2008 01 19.25282 08 12 40.46 +20 41 35.0 19.6 V 691 – Steward Observatory, Kitt Peak-Spacewatch MPS 236377
2008 01 31.33058 08 01 57.68 +20 47 18.2 20.8 V G96 – Mt. Lemmon Survey MPS 235558
2008 01 31.33501 08 01 57.46 +20 47 17.8 20.8 V G96 – Mt. Lemmon Survey MPS 235558
2008 01 31.33954 08 01 57.18 +20 47 17.5 20.9 V G96 – Mt. Lemmon Survey MPS 235558
2008 01 31.34405 08 01 56.96 +20 47 18.0 21.1 V G96 – Mt. Lemmon Survey MPS 235558
2008 02 13.17274 07 51 59.11 +20 47 22.8 20.0 V G96 – Mt. Lemmon Survey MPS 237676
2008 02 13.17957 07 51 58.75 +20 47 23.3 19.6 V G96 – Mt. Lemmon Survey MPS 237676
2008 02 13.18631 07 51 58.60 +20 47 22.9 19.7 V G96 – Mt. Lemmon Survey MPS 237676
2008 02 13.19309 07 51 58.28 +20 47 22.3 20.2 V G96 – Mt. Lemmon Survey MPS 237676
2008 02 24.14716 07 45 46.18 +20 41 30.1 20.9 V G96 – Mt. Lemmon Survey MPS 239596
2008 02 24.15212 07 45 46.04 +20 41 29.5 20.9 V G96 – Mt. Lemmon Survey MPS 239596
2008 02 24.15726 07 45 45.90 +20 41 29.2 20.9 V G96 – Mt. Lemmon Survey MPS 239596
2008 02 24.16227 07 45 45.75 +20 41 29.1 20.6 V G96 – Mt. Lemmon Survey MPS 239596
2010 04 07.53624 19 14 04.68 -27 32 53.2   C51 – WISE MPS 322284
2010 04 07.60233 19 14 07.90 -27 32 48.3   C51 – WISE MPS 322284
2010 04 07.86707 19 14 20.65 -27 32 29.5   C51 – WISE MPS 322284
2010 04 07.99937 19 14 27.08 -27 32 18.5   C51 – WISE MPS 322284
2010 04 08.13168 19 14 33.39 -27 32 08.7   C51 – WISE MPS 322284
2011 06 11.57812 23 55 49.594 +05 11 07.41 22.2 w F51 – Pan-STARRS 1, Haleakala MPS 384691
2011 06 11.58364 23 55 49.830 +05 11 09.81 22.2 w F51 – Pan-STARRS 1, Haleakala MPS 384691
2011 06 11.58918 23 55 50.063 +05 11 12.36 22.3 w F51 – Pan-STARRS 1, Haleakala MPS 384691
2011 09 04.42308 00 00 54.150 +10 20 36.04 20.6 w F51 – Pan-STARRS 1, Haleakala MPS 390613
2011 09 04.43808 00 00 53.526 +10 20 34.63 20.5 w F51 – Pan-STARRS 1, Haleakala MPS 390613
2011 09 04.45296 00 00 52.906 +10 20 33.20 20.6 w F51 – Pan-STARRS 1, Haleakala MPS 390613
2011 09 26.24668 23 44 46.82 +09 16 37.6 20.0 V 703 – Catalina Sky Survey MPS 394168
2011 09 26.25380 23 44 46.53 +09 16 35.7 19.8 V 703 – Catalina Sky Survey MPS 394168
2011 09 26.26097 23 44 46.21 +09 16 33.7 20.3 V 703 – Catalina Sky Survey MPS 394168
2011 09 26.26821 23 44 45.78 +09 16 31.9 19.5 V 703 – Catalina Sky Survey MPS 394168
2011 10 06.16254 23 37 38.82 +08 34 56.9 20.1 V G96 – Mt. Lemmon Survey MPS 394974
2011 10 06.16946 23 37 38.49 +08 34 55.5 20.0 V G96 – Mt. Lemmon Survey MPS 394974
2011 10 06.17650 23 37 38.17 +08 34 53.6 20.5 V G96 – Mt. Lemmon Survey MPS 394974
2011 10 06.18357 23 37 37.88 +08 34 51.6 19.7 V G96 – Mt. Lemmon Survey MPS 394974
2011 10 24.14725 23 27 50.31 +07 19 03.1 20.0 R H15 – ISON-NM Observatory, Mayhill MPS 398062
2011 10 24.16408 23 27 49.81 +07 18 58.0 20.0 R H15 – ISON-NM Observatory, Mayhill MPS 398062
2011 10 24.17958 23 27 49.48 +07 18 55.9 19.9 R H15 – ISON-NM Observatory, Mayhill MPS 398062
2011 10 24.19481 23 27 49.13 +07 18 52.9 20.0 R H15 – ISON-NM Observatory, Mayhill MPS 398062
2012 11 06.507231 05 09 07.438 +32 01 13.29 20.3 i F51 – Pan-STARRS 1, Haleakala MPS 441519
2012 11 06.521090 05 09 06.915 +32 01 13.48 20.1 i F51 – Pan-STARRS 1, Haleakala MPS 441519
2012 12 05.26938 04 45 41.72 +31 21 31.8 19.6 V G96 – Mt. Lemmon Survey MPS 445868
2012 12 05.27718 04 45 41.18 +31 21 30.6 20.1 V G96 – Mt. Lemmon Survey MPS 445868
2012 12 05.28497 04 45 40.78 +31 21 29.5 19.6 V G96 – Mt. Lemmon Survey MPS 445868
2012 12 05.29280 04 45 40.35 +31 21 27.7 19.9 V G96 – Mt. Lemmon Survey MPS 445868
2012 12 31.40007 04 24 31.670 +29 43 37.73 20.2 i F51 – Pan-STARRS 1, Haleakala MPS 449539
2012 12 31.41272 04 24 31.195 +29 43 34.48 20.3 i F51 – Pan-STARRS 1, Haleakala MPS 449539
2013 01 15.20344 04 18 15.15 +28 43 25.8 20.1 V G96 – Mt. Lemmon Survey MPS 452175
2013 01 15.21192 04 18 15.04 +28 43 24.3 20.4 V G96 – Mt. Lemmon Survey MPS 452175
2013 01 15.22039 04 18 14.94 +28 43 21.7 20.1 V G96 – Mt. Lemmon Survey MPS 452175
2013 01 15.22880 04 18 14.79 +28 43 19.7 20.0 V G96 – Mt. Lemmon Survey MPS 452175
2014 01 10.43500 10 17 08.34 +06 58 49.3 20.4 V G96 – Mt. Lemmon Survey MPS 496468
2014 01 10.44008 10 17 08.25 +06 58 49.9 20.9 V G96 – Mt. Lemmon Survey MPS 496468
2014 01 10.44516 10 17 08.10 +06 58 48.2 20.5 V G96 – Mt. Lemmon Survey MPS 496468
2014 01 10.45023 10 17 07.98 +06 58 48.7 20.9 V G96 – Mt. Lemmon Survey MPS 496468
2014 02 10.43652 09 57 41.929 +07 20 27.65 19.7 i F51 – Pan-STARRS 1, Haleakala MPS 501555
2014 02 10.44887 09 57 41.312 +07 20 29.30 19.6 i F51 – Pan-STARRS 1, Haleakala MPS 501555
2014 02 10.46125 09 57 40.681 +07 20 30.70 19.6 i F51 – Pan-STARRS 1, Haleakala MPS 501555
2014 02 10.47369 09 57 40.048 +07 20 32.23 19.6 i F51 – Pan-STARRS 1, Haleakala MPS 501555
2014 02 28.32307 09 43 11.965 +08 01 41.04 19.7 w F51 – Pan-STARRS 1, Haleakala MPS 505241
2014 02 28.33622 09 43 11.340 +08 01 42.96 19.8 w F51 – Pan-STARRS 1, Haleakala MPS 505241
2014 02 28.34922 09 43 10.727 +08 01 44.88 19.8 w F51 – Pan-STARRS 1, Haleakala MPS 505241
2014 03 20.26463 09 30 47.238 +08 43 43.24 20.5 w F51 – Pan-STARRS 1, Haleakala MPS 508351
2014 03 20.27643 09 30 46.898 +08 43 44.44 20.4 w F51 – Pan-STARRS 1, Haleakala MPS 508351
2014 03 20.28980 09 30 46.522 +08 43 45.76 20.5 w F51 – Pan-STARRS 1, Haleakala MPS 508351
2014 03 20.30166 09 30 46.189 +08 43 46.95 20.4 w F51 – Pan-STARRS 1, Haleakala MPS 508351
2015 04 02.54967 15 17 07.290 -29 36 34.38 20.4 i F51 – Pan-STARRS 1, Haleakala MPS 598383
2015 04 02.56053 15 17 07.010 -29 36 35.33 20.2 i F51 – Pan-STARRS 1, Haleakala MPS 598383
2015 04 02.57130 15 17 06.774 -29 36 36.29 20.4 i F51 – Pan-STARRS 1, Haleakala MPS 598383
2015 04 02.58210 15 17 06.529 -29 36 36.83 20.2 i F51 – Pan-STARRS 1, Haleakala MPS 598383
2015 04 20.48651 15 07 10.677 -29 36 27.65 19.9 w F51 – Pan-STARRS 1, Haleakala MPS 602912
